Search the data

BODC Cruise Metadata Report for FS Poseidon (06PO) cruise PO31

Introduction

This report collates information from the BODC cruise inventory and oceanographic databases. It presents

Cruise Inventory Information

Long name FS Poseidon (06PO) cruise PO31
Short name PO31
Objectives and Narrative
Ship FS Poseidon
Departure Port
Departure Date 1978-08-21
Arrival Port
Arrival Date 1978-09-05
Principal Scientist(s)
Responsible Organisation Federal Research Centre for Fisheries, Hamburg
Associated Project(s)
IHB Sea Areas Visited
Marsden Squares Visited
Work Area Description
Work Area Bounding Polygon
Southern Limit unknown
Northern Limit unknown
Western Limit unknown
Eastern Limit unknown

Cruise Inventory Datasets

No information on datasets is currently available for this cruise

Cruise Inventory Mooring/Buoy Operations

No information on datasets is currently available

Summary of BODC Data Holdings for the Cruise

National Oceanographic Database

Summary

# Series Instrument Description Parameters
610 CTD/STD cast Salinity of the water column
Temperature of the water column
Vertical spatial coordinates

Note: Parameter terms are taken from the BODC Parameter Discovery Vocabulary XML (SKOS)

Full List

BODC Reference Instrument Description Date/Time Location  
106113 CTD/STD cast 1978-08-24 16:45Z 58° 55' N, 12° 27' W Click for more
106125 CTD/STD cast 1978-08-24 17:26Z 58° 56' N, 12° 26' W Click for more
106137 CTD/STD cast 1978-08-24 18:10Z 58° 57' N, 12° 26' W Click for more
106149 CTD/STD cast 1978-08-24 18:53Z 58° 57' N, 12° 26' W Click for more
106150 CTD/STD cast 1978-08-24 19:38Z 58° 58' N, 12° 26' W Click for more
106162 CTD/STD cast 1978-08-24 20:23Z 58° 58' N, 12° 27' W Click for more
106174 CTD/STD cast 1978-08-24 21:00Z 58° 58' N, 12° 26' W Click for more
106186 CTD/STD cast 1978-08-24 21:45Z 58° 59' N, 12° 27' W Click for more
106198 CTD/STD cast 1978-08-24 22:26Z 59° 0' N, 12° 26' W Click for more
106205 CTD/STD cast 1978-08-24 23:21Z 59° 0' N, 12° 26' W Click for more
106217 CTD/STD cast 1978-08-25 00:03Z 59° 1' N, 12° 25' W Click for more
106229 CTD/STD cast 1978-08-25 01:35Z 59° 3' N, 12° 27' W Click for more
106230 CTD/STD cast 1978-08-25 04:46Z 59° 2' N, 12° 27' W Click for more
106242 CTD/STD cast 1978-08-25 05:32Z 59° 2' N, 12° 28' W Click for more
106254 CTD/STD cast 1978-08-25 06:13Z 59° 2' N, 12° 30' W Click for more
106266 CTD/STD cast 1978-08-25 07:37Z 59° 2' N, 12° 31' W Click for more
106278 CTD/STD cast 1978-08-25 08:17Z 59° 2' N, 12° 32' W Click for more
106291 CTD/STD cast 1978-08-25 09:03Z 59° 2' N, 12° 33' W Click for more
106309 CTD/STD cast 1978-08-25 10:03Z 59° 2' N, 12° 34' W Click for more
106310 CTD/STD cast 1978-08-25 10:58Z 59° 2' N, 12° 35' W Click for more
106322 CTD/STD cast 1978-08-25 11:43Z 59° 2' N, 12° 36' W Click for more
106334 CTD/STD cast 1978-08-25 13:00Z 59° 1' N, 12° 36' W Click for more
106346 CTD/STD cast 1978-08-25 13:51Z 59° 1' N, 12° 36' W Click for more
106358 CTD/STD cast 1978-08-25 14:36Z 59° 1' N, 12° 36' W Click for more
106371 CTD/STD cast 1978-08-25 15:18Z 59° 0' N, 12° 36' W Click for more
106383 CTD/STD cast 1978-08-25 16:02Z 59° 0' N, 12° 36' W Click for more
106395 CTD/STD cast 1978-08-25 16:48Z 58° 59' N, 12° 36' W Click for more
106402 CTD/STD cast 1978-08-25 17:39Z 58° 58' N, 12° 36' W Click for more
106414 CTD/STD cast 1978-08-25 18:33Z 58° 58' N, 12° 36' W Click for more
106426 CTD/STD cast 1978-08-25 19:11Z 58° 58' N, 12° 36' W Click for more
106438 CTD/STD cast 1978-08-25 19:56Z 58° 57' N, 12° 36' W Click for more
106451 CTD/STD cast 1978-08-25 20:46Z 58° 57' N, 12° 36' W Click for more
106463 CTD/STD cast 1978-08-25 21:38Z 58° 56' N, 12° 36' W Click for more
106475 CTD/STD cast 1978-08-25 23:01Z 58° 56' N, 12° 34' W Click for more
106487 CTD/STD cast 1978-08-25 23:43Z 58° 55' N, 12° 34' W Click for more
106499 CTD/STD cast 1978-08-26 00:34Z 58° 55' N, 12° 34' W Click for more
106506 CTD/STD cast 1978-08-26 01:21Z 58° 55' N, 12° 32' W Click for more
106518 CTD/STD cast 1978-08-26 02:51Z 58° 55' N, 12° 30' W Click for more
106531 CTD/STD cast 1978-08-26 03:38Z 58° 55' N, 12° 30' W Click for more
106543 CTD/STD cast 1978-08-26 04:26Z 58° 55' N, 12° 28' W Click for more
106555 CTD/STD cast 1978-08-26 05:09Z 58° 54' N, 12° 28' W Click for more
106567 CTD/STD cast 1978-08-26 05:55Z 58° 54' N, 12° 27' W Click for more
106579 CTD/STD cast 1978-08-26 07:09Z 58° 55' N, 12° 26' W Click for more
106580 CTD/STD cast 1978-08-26 08:09Z 58° 55' N, 12° 26' W Click for more
106592 CTD/STD cast 1978-08-26 08:53Z 58° 56' N, 12° 26' W Click for more
106611 CTD/STD cast 1978-09-03 08:27Z 59° 2' N, 12° 24' W Click for more
106623 CTD/STD cast 1978-09-03 09:05Z 59° 1' N, 12° 24' W Click for more
106635 CTD/STD cast 1978-09-03 09:42Z 59° 1' N, 12° 24' W Click for more
106647 CTD/STD cast 1978-09-03 10:22Z 59° 1' N, 12° 24' W Click for more
106659 CTD/STD cast 1978-09-03 11:38Z 59° 0' N, 12° 24' W Click for more
106660 CTD/STD cast 1978-09-03 12:23Z 58° 59' N, 12° 24' W Click for more
106672 CTD/STD cast 1978-09-03 12:56Z 58° 58' N, 12° 24' W Click for more
106684 CTD/STD cast 1978-09-03 13:34Z 58° 58' N, 12° 24' W Click for more
106696 CTD/STD cast 1978-09-03 14:13Z 58° 57' N, 12° 24' W Click for more
106703 CTD/STD cast 1978-09-03 14:48Z 58° 57' N, 12° 25' W Click for more
106715 CTD/STD cast 1978-09-03 21:50Z 58° 57' N, 12° 25' W Click for more
106727 CTD/STD cast 1978-09-03 22:42Z 58° 57' N, 12° 25' W Click for more
106739 CTD/STD cast 1978-09-03 23:22Z 58° 57' N, 12° 27' W Click for more
106740 CTD/STD cast 1978-09-04 00:07Z 58° 57' N, 12° 28' W Click for more
106752 CTD/STD cast 1978-09-04 00:42Z 58° 57' N, 12° 28' W Click for more
106764 CTD/STD cast 1978-09-04 01:21Z 58° 57' N, 12° 30' W Click for more
106776 CTD/STD cast 1978-09-04 02:01Z 58° 57' N, 12° 30' W Click for more
106788 CTD/STD cast 1978-09-04 02:39Z 58° 57' N, 12° 31' W Click for more
106807 CTD/STD cast 1978-09-04 03:14Z 58° 57' N, 12° 33' W Click for more
106819 CTD/STD cast 1978-09-04 03:50Z 58° 57' N, 12° 33' W Click for more
106820 CTD/STD cast 1978-09-04 04:26Z 58° 57' N, 12° 34' W Click for more
106832 CTD/STD cast 1978-09-04 05:07Z 58° 57' N, 12° 36' W Click for more
106844 CTD/STD cast 1978-09-04 05:50Z 58° 58' N, 12° 36' W Click for more
106856 CTD/STD cast 1978-09-04 06:31Z 58° 58' N, 12° 36' W Click for more
106868 CTD/STD cast 1978-09-04 07:14Z 58° 59' N, 12° 36' W Click for more
106881 CTD/STD cast 1978-09-04 07:51Z 58° 59' N, 12° 36' W Click for more
106893 CTD/STD cast 1978-09-04 08:29Z 59° 0' N, 12° 36' W Click for more
106900 CTD/STD cast 1978-09-04 09:09Z 59° 0' N, 12° 35' W Click for more
106912 CTD/STD cast 1978-09-04 09:57Z 59° 1' N, 12° 36' W Click for more
106924 CTD/STD cast 1978-09-04 10:35Z 59° 1' N, 12° 36' W Click for more
106936 CTD/STD cast 1978-09-04 11:15Z 59° 2' N, 12° 36' W Click for more
106948 CTD/STD cast 1978-09-04 12:02Z 59° 2' N, 12° 34' W Click for more
106961 CTD/STD cast 1978-09-04 12:47Z 59° 2' N, 12° 34' W Click for more
106973 CTD/STD cast 1978-09-04 13:30Z 59° 2' N, 12° 33' W Click for more
106985 CTD/STD cast 1978-09-04 14:14Z 59° 2' N, 12° 31' W Click for more
106997 CTD/STD cast 1978-09-04 15:00Z 59° 2' N, 12° 31' W Click for more
107000 CTD/STD cast 1978-09-04 15:44Z 59° 2' N, 12° 30' W Click for more
107012 CTD/STD cast 1978-09-04 16:40Z 59° 2' N, 12° 29' W Click for more
107024 CTD/STD cast 1978-09-04 17:19Z 59° 2' N, 12° 28' W Click for more
107036 CTD/STD cast 1978-09-04 17:53Z 59° 2' N, 12° 27' W Click for more
107048 CTD/STD cast 1978-09-04 18:39Z 59° 2' N, 12° 26' W Click for more
107061 CTD/STD cast 1978-09-04 19:19Z 59° 2' N, 12° 25' W Click for more
107073 CTD/STD cast 1978-09-04 19:54Z 59° 2' N, 12° 24' W Click for more
107085 CTD/STD cast 1978-09-05 00:39Z 59° 2' N, 12° 36' W Click for more
107097 CTD/STD cast 1978-09-05 01:15Z 59° 2' N, 12° 34' W Click for more
107104 CTD/STD cast 1978-09-05 02:02Z 59° 2' N, 12° 33' W Click for more
107116 CTD/STD cast 1978-09-05 02:39Z 59° 2' N, 12° 31' W Click for more
107128 CTD/STD cast 1978-09-05 03:22Z 59° 2' N, 12° 30' W Click for more
107141 CTD/STD cast 1978-09-05 04:02Z 59° 2' N, 12° 30' W Click for more
107153 CTD/STD cast 1978-09-05 04:33Z 59° 3' N, 12° 28' W Click for more
107165 CTD/STD cast 1978-09-05 05:28Z 59° 2' N, 12° 28' W Click for more
107177 CTD/STD cast 1978-09-05 10:48Z 59° 2' N, 12° 27' W Click for more
107189 CTD/STD cast 1978-09-05 11:25Z 59° 2' N, 12° 27' W Click for more
107190 CTD/STD cast 1978-09-05 13:09Z 59° 2' N, 12° 24' W Click for more
107208 CTD/STD cast 1978-09-05 13:42Z 59° 2' N, 12° 24' W Click for more
107221 CTD/STD cast 1978-09-05 14:18Z 59° 2' N, 12° 23' W Click for more
107233 CTD/STD cast 1978-08-29 11:55Z 58° 59' N, 12° 21' W Click for more
107245 CTD/STD cast 1978-08-29 12:00Z 58° 59' N, 12° 21' W Click for more
107257 CTD/STD cast 1978-08-29 12:05Z 58° 59' N, 12° 21' W Click for more
107269 CTD/STD cast 1978-08-29 12:10Z 58° 59' N, 12° 21' W Click for more
107270 CTD/STD cast 1978-08-29 12:15Z 58° 59' N, 12° 21' W Click for more
107282 CTD/STD cast 1978-08-29 12:20Z 58° 59' N, 12° 21' W Click for more
107294 CTD/STD cast 1978-08-29 12:25Z 58° 59' N, 12° 21' W Click for more
107301 CTD/STD cast 1978-08-29 12:30Z 58° 59' N, 12° 21' W Click for more
107313 CTD/STD cast 1978-08-29 12:35Z 58° 59' N, 12° 21' W Click for more
107325 CTD/STD cast 1978-08-29 12:40Z 58° 59' N, 12° 21' W Click for more
107337 CTD/STD cast 1978-08-29 12:45Z 58° 59' N, 12° 21' W Click for more
107349 CTD/STD cast 1978-08-29 12:50Z 58° 59' N, 12° 21' W Click for more
107350 CTD/STD cast 1978-08-29 13:00Z 58° 59' N, 12° 21' W Click for more
107362 CTD/STD cast 1978-08-29 13:05Z 58° 59' N, 12° 21' W Click for more
107374 CTD/STD cast 1978-08-29 13:10Z 58° 59' N, 12° 21' W Click for more
107386 CTD/STD cast 1978-08-29 13:15Z 58° 59' N, 12° 21' W Click for more
107398 CTD/STD cast 1978-08-29 13:20Z 58° 59' N, 12° 21' W Click for more
107405 CTD/STD cast 1978-08-29 13:25Z 58° 59' N, 12° 21' W Click for more
107417 CTD/STD cast 1978-08-29 13:30Z 58° 59' N, 12° 21' W Click for more
107429 CTD/STD cast 1978-08-29 13:35Z 58° 59' N, 12° 21' W Click for more
107430 CTD/STD cast 1978-08-29 13:40Z 58° 59' N, 12° 21' W Click for more
107442 CTD/STD cast 1978-08-29 13:45Z 58° 59' N, 12° 21' W Click for more
107454 CTD/STD cast 1978-08-29 13:50Z 58° 59' N, 12° 21' W Click for more
107466 CTD/STD cast 1978-08-29 14:00Z 58° 59' N, 12° 21' W Click for more
107478 CTD/STD cast 1978-08-29 14:05Z 58° 59' N, 12° 21' W Click for more
107491 CTD/STD cast 1978-08-29 14:10Z 58° 59' N, 12° 21' W Click for more
107509 CTD/STD cast 1978-08-29 14:15Z 58° 59' N, 12° 21' W Click for more
107510 CTD/STD cast 1978-08-29 14:20Z 58° 59' N, 12° 21' W Click for more
107522 CTD/STD cast 1978-08-29 14:25Z 58° 59' N, 12° 21' W Click for more
107534 CTD/STD cast 1978-08-29 14:35Z 58° 59' N, 12° 21' W Click for more
107546 CTD/STD cast 1978-08-29 14:40Z 58° 59' N, 12° 21' W Click for more
107558 CTD/STD cast 1978-08-29 14:45Z 58° 59' N, 12° 21' W Click for more
107571 CTD/STD cast 1978-08-29 14:50Z 58° 59' N, 12° 21' W Click for more
107583 CTD/STD cast 1978-08-29 15:00Z 58° 59' N, 12° 21' W Click for more
107595 CTD/STD cast 1978-08-29 15:05Z 58° 59' N, 12° 21' W Click for more
107602 CTD/STD cast 1978-08-29 15:10Z 58° 59' N, 12° 21' W Click for more
107614 CTD/STD cast 1978-08-29 15:15Z 58° 59' N, 12° 21' W Click for more
107626 CTD/STD cast 1978-08-29 15:20Z 58° 59' N, 12° 21' W Click for more
107638 CTD/STD cast 1978-08-29 15:25Z 58° 59' N, 12° 21' W Click for more
107651 CTD/STD cast 1978-08-29 15:30Z 58° 59' N, 12° 21' W Click for more
107663 CTD/STD cast 1978-08-29 15:35Z 58° 59' N, 12° 21' W Click for more
107675 CTD/STD cast 1978-08-29 15:40Z 58° 59' N, 12° 21' W Click for more
107687 CTD/STD cast 1978-08-29 15:45Z 58° 59' N, 12° 21' W Click for more
107699 CTD/STD cast 1978-08-29 15:50Z 58° 59' N, 12° 21' W Click for more
107706 CTD/STD cast 1978-08-29 16:00Z 58° 59' N, 12° 21' W Click for more
107718 CTD/STD cast 1978-08-29 16:05Z 58° 59' N, 12° 21' W Click for more
107731 CTD/STD cast 1978-08-29 16:10Z 58° 59' N, 12° 21' W Click for more
107743 CTD/STD cast 1978-08-29 16:15Z 58° 59' N, 12° 21' W Click for more
107755 CTD/STD cast 1978-08-29 16:20Z 58° 59' N, 12° 21' W Click for more
107767 CTD/STD cast 1978-08-29 16:25Z 58° 59' N, 12° 21' W Click for more
107779 CTD/STD cast 1978-08-29 16:30Z 58° 59' N, 12° 21' W Click for more
107780 CTD/STD cast 1978-08-29 16:35Z 58° 59' N, 12° 21' W Click for more
107792 CTD/STD cast 1978-08-29 16:40Z 58° 59' N, 12° 21' W Click for more
107811 CTD/STD cast 1978-08-29 16:45Z 58° 59' N, 12° 21' W Click for more
107823 CTD/STD cast 1978-08-29 16:50Z 58° 59' N, 12° 21' W Click for more
107835 CTD/STD cast 1978-08-29 17:00Z 58° 59' N, 12° 21' W Click for more
107847 CTD/STD cast 1978-08-29 17:05Z 58° 59' N, 12° 21' W Click for more
107859 CTD/STD cast 1978-08-29 17:10Z 58° 59' N, 12° 21' W Click for more
107860 CTD/STD cast 1978-08-29 17:15Z 58° 59' N, 12° 21' W Click for more
107872 CTD/STD cast 1978-08-29 17:20Z 58° 59' N, 12° 21' W Click for more
107884 CTD/STD cast 1978-08-29 17:25Z 58° 59' N, 12° 21' W Click for more
107896 CTD/STD cast 1978-08-29 17:30Z 58° 59' N, 12° 21' W Click for more
107903 CTD/STD cast 1978-08-29 17:35Z 58° 59' N, 12° 21' W Click for more
107915 CTD/STD cast 1978-08-29 17:50Z 58° 59' N, 12° 21' W Click for more
107927 CTD/STD cast 1978-08-29 18:05Z 58° 59' N, 12° 21' W Click for more
107939 CTD/STD cast 1978-08-29 18:15Z 58° 59' N, 12° 21' W Click for more
107940 CTD/STD cast 1978-08-29 18:20Z 58° 59' N, 12° 21' W Click for more
107952 CTD/STD cast 1978-08-29 18:25Z 58° 59' N, 12° 21' W Click for more
107964 CTD/STD cast 1978-08-29 18:30Z 58° 59' N, 12° 21' W Click for more
107976 CTD/STD cast 1978-08-29 18:35Z 58° 59' N, 12° 21' W Click for more
107988 CTD/STD cast 1978-08-29 19:15Z 58° 59' N, 12° 21' W Click for more
108003 CTD/STD cast 1978-08-29 19:20Z 58° 59' N, 12° 21' W Click for more
108015 CTD/STD cast 1978-08-29 19:25Z 58° 59' N, 12° 21' W Click for more
108027 CTD/STD cast 1978-08-29 19:30Z 58° 59' N, 12° 21' W Click for more
108039 CTD/STD cast 1978-08-29 19:35Z 58° 59' N, 12° 21' W Click for more
108040 CTD/STD cast 1978-08-29 19:40Z 58° 59' N, 12° 21' W Click for more
108052 CTD/STD cast 1978-08-29 19:45Z 58° 59' N, 12° 21' W Click for more
108064 CTD/STD cast 1978-08-29 19:50Z 58° 59' N, 12° 21' W Click for more
108076 CTD/STD cast 1978-08-29 19:55Z 58° 59' N, 12° 21' W Click for more
108088 CTD/STD cast 1978-08-29 20:00Z 58° 59' N, 12° 21' W Click for more
108107 CTD/STD cast 1978-08-29 20:05Z 58° 59' N, 12° 21' W Click for more
108119 CTD/STD cast 1978-08-29 20:10Z 58° 59' N, 12° 21' W Click for more
108120 CTD/STD cast 1978-08-29 20:15Z 58° 59' N, 12° 21' W Click for more
108132 CTD/STD cast 1978-08-29 20:20Z 58° 59' N, 12° 21' W Click for more
108144 CTD/STD cast 1978-08-29 20:25Z 58° 59' N, 12° 21' W Click for more
108156 CTD/STD cast 1978-08-29 20:40Z 58° 59' N, 12° 21' W Click for more
108168 CTD/STD cast 1978-08-29 20:45Z 58° 59' N, 12° 21' W Click for more
108181 CTD/STD cast 1978-08-29 20:50Z 58° 59' N, 12° 21' W Click for more
108193 CTD/STD cast 1978-08-29 20:55Z 58° 59' N, 12° 21' W Click for more
108200 CTD/STD cast 1978-08-29 21:00Z 58° 59' N, 12° 21' W Click for more
108212 CTD/STD cast 1978-08-29 21:05Z 58° 59' N, 12° 21' W Click for more
108224 CTD/STD cast 1978-08-29 21:10Z 58° 59' N, 12° 21' W Click for more
108236 CTD/STD cast 1978-08-29 21:15Z 58° 59' N, 12° 21' W Click for more
108248 CTD/STD cast 1978-08-29 21:20Z 58° 59' N, 12° 21' W Click for more
108261 CTD/STD cast 1978-08-29 21:30Z 58° 59' N, 12° 21' W Click for more
108273 CTD/STD cast 1978-08-29 21:35Z 58° 59' N, 12° 21' W Click for more
108285 CTD/STD cast 1978-08-29 21:40Z 58° 59' N, 12° 21' W Click for more
108297 CTD/STD cast 1978-08-29 21:45Z 58° 59' N, 12° 21' W Click for more
108304 CTD/STD cast 1978-08-29 21:50Z 58° 59' N, 12° 21' W Click for more
108316 CTD/STD cast 1978-08-29 22:10Z 58° 59' N, 12° 21' W Click for more
108328 CTD/STD cast 1978-08-29 22:15Z 58° 59' N, 12° 21' W Click for more
108341 CTD/STD cast 1978-08-29 22:20Z 58° 59' N, 12° 21' W Click for more
108353 CTD/STD cast 1978-08-29 22:25Z 58° 59' N, 12° 21' W Click for more
108365 CTD/STD cast 1978-08-29 22:30Z 58° 59' N, 12° 21' W Click for more
108377 CTD/STD cast 1978-08-29 22:35Z 58° 59' N, 12° 21' W Click for more
108389 CTD/STD cast 1978-08-29 22:40Z 58° 59' N, 12° 21' W Click for more
108390 CTD/STD cast 1978-08-29 22:45Z 58° 59' N, 12° 21' W Click for more
108408 CTD/STD cast 1978-08-29 22:50Z 58° 59' N, 12° 21' W Click for more
108421 CTD/STD cast 1978-08-29 22:55Z 58° 59' N, 12° 21' W Click for more
108433 CTD/STD cast 1978-08-29 23:00Z 58° 59' N, 12° 21' W Click for more
108445 CTD/STD cast 1978-08-29 23:05Z 58° 59' N, 12° 21' W Click for more
108457 CTD/STD cast 1978-08-29 23:10Z 58° 59' N, 12° 21' W Click for more
108469 CTD/STD cast 1978-08-29 23:15Z 58° 59' N, 12° 21' W Click for more
108470 CTD/STD cast 1978-08-29 23:20Z 58° 59' N, 12° 21' W Click for more
108482 CTD/STD cast 1978-08-29 23:25Z 58° 59' N, 12° 21' W Click for more
108494 CTD/STD cast 1978-08-29 23:30Z 58° 59' N, 12° 21' W Click for more
108501 CTD/STD cast 1978-08-29 23:35Z 58° 59' N, 12° 21' W Click for more
108513 CTD/STD cast 1978-08-29 23:40Z 58° 59' N, 12° 21' W Click for more
108525 CTD/STD cast 1978-08-29 23:45Z 58° 59' N, 12° 21' W Click for more
108537 CTD/STD cast 1978-08-29 23:50Z 58° 59' N, 12° 21' W Click for more
108549 CTD/STD cast 1978-08-29 23:55Z 58° 59' N, 12° 21' W Click for more
108550 CTD/STD cast 1978-08-30 00:10Z 58° 54' N, 12° 22' W Click for more
108562 CTD/STD cast 1978-08-30 00:15Z 58° 54' N, 12° 22' W Click for more
108574 CTD/STD cast 1978-08-30 00:20Z 58° 54' N, 12° 22' W Click for more
108586 CTD/STD cast 1978-08-30 00:25Z 58° 54' N, 12° 22' W Click for more
108598 CTD/STD cast 1978-08-30 00:30Z 58° 54' N, 12° 22' W Click for more
108605 CTD/STD cast 1978-08-30 00:35Z 58° 54' N, 12° 22' W Click for more
108617 CTD/STD cast 1978-08-30 00:45Z 58° 54' N, 12° 22' W Click for more
108629 CTD/STD cast 1978-08-30 00:50Z 58° 54' N, 12° 22' W Click for more
108630 CTD/STD cast 1978-08-30 01:15Z 58° 54' N, 12° 22' W Click for more
108642 CTD/STD cast 1978-08-30 01:20Z 58° 54' N, 12° 22' W Click for more
108654 CTD/STD cast 1978-08-30 01:25Z 58° 54' N, 12° 22' W Click for more
108666 CTD/STD cast 1978-08-30 01:45Z 58° 54' N, 12° 22' W Click for more
108678 CTD/STD cast 1978-08-30 01:50Z 58° 54' N, 12° 22' W Click for more
108691 CTD/STD cast 1978-08-30 01:55Z 58° 54' N, 12° 22' W Click for more
108709 CTD/STD cast 1978-08-30 02:00Z 58° 54' N, 12° 22' W Click for more
108710 CTD/STD cast 1978-08-30 02:05Z 58° 54' N, 12° 22' W Click for more
108722 CTD/STD cast 1978-08-30 02:10Z 58° 54' N, 12° 22' W Click for more
108734 CTD/STD cast 1978-08-30 02:15Z 58° 54' N, 12° 22' W Click for more
108746 CTD/STD cast 1978-08-30 02:20Z 58° 54' N, 12° 22' W Click for more
108758 CTD/STD cast 1978-08-30 02:25Z 58° 54' N, 12° 22' W Click for more
108771 CTD/STD cast 1978-08-30 02:45Z 58° 54' N, 12° 22' W Click for more
108783 CTD/STD cast 1978-08-30 02:50Z 58° 54' N, 12° 22' W Click for more
108795 CTD/STD cast 1978-08-30 02:55Z 58° 54' N, 12° 22' W Click for more
108802 CTD/STD cast 1978-08-30 03:00Z 58° 54' N, 12° 22' W Click for more
108814 CTD/STD cast 1978-08-30 03:05Z 58° 54' N, 12° 22' W Click for more
108826 CTD/STD cast 1978-08-30 03:10Z 58° 54' N, 12° 22' W Click for more
108838 CTD/STD cast 1978-08-30 03:15Z 58° 54' N, 12° 22' W Click for more
108851 CTD/STD cast 1978-08-30 03:20Z 58° 54' N, 12° 22' W Click for more
108863 CTD/STD cast 1978-08-30 03:25Z 58° 54' N, 12° 22' W Click for more
108875 CTD/STD cast 1978-08-30 03:30Z 58° 54' N, 12° 22' W Click for more
108887 CTD/STD cast 1978-08-30 03:35Z 58° 54' N, 12° 22' W Click for more
108899 CTD/STD cast 1978-08-30 03:40Z 58° 54' N, 12° 22' W Click for more
108906 CTD/STD cast 1978-08-30 03:45Z 58° 54' N, 12° 22' W Click for more
108918 CTD/STD cast 1978-08-30 03:50Z 58° 54' N, 12° 22' W Click for more
108931 CTD/STD cast 1978-08-30 03:55Z 58° 54' N, 12° 22' W Click for more
108943 CTD/STD cast 1978-08-30 04:00Z 58° 54' N, 12° 22' W Click for more
108955 CTD/STD cast 1978-08-30 04:05Z 58° 54' N, 12° 22' W Click for more
108967 CTD/STD cast 1978-08-30 04:10Z 58° 54' N, 12° 22' W Click for more
108979 CTD/STD cast 1978-08-30 04:15Z 58° 54' N, 12° 22' W Click for more
108980 CTD/STD cast 1978-08-30 04:20Z 58° 54' N, 12° 22' W Click for more
108992 CTD/STD cast 1978-08-30 04:25Z 58° 54' N, 12° 22' W Click for more
109006 CTD/STD cast 1978-08-30 04:30Z 58° 54' N, 12° 22' W Click for more
109018 CTD/STD cast 1978-08-30 04:35Z 58° 54' N, 12° 22' W Click for more
109031 CTD/STD cast 1978-08-30 04:40Z 58° 54' N, 12° 22' W Click for more
109043 CTD/STD cast 1978-08-30 04:45Z 58° 54' N, 12° 22' W Click for more
109055 CTD/STD cast 1978-08-30 04:50Z 58° 54' N, 12° 22' W Click for more
109067 CTD/STD cast 1978-08-30 04:55Z 58° 54' N, 12° 22' W Click for more
109079 CTD/STD cast 1978-08-30 05:00Z 58° 54' N, 12° 22' W Click for more
109080 CTD/STD cast 1978-08-30 05:05Z 58° 54' N, 12° 22' W Click for more
109092 CTD/STD cast 1978-08-30 05:10Z 58° 54' N, 12° 22' W Click for more
109111 CTD/STD cast 1978-08-30 05:15Z 58° 54' N, 12° 22' W Click for more
109123 CTD/STD cast 1978-08-30 05:20Z 58° 54' N, 12° 22' W Click for more
109135 CTD/STD cast 1978-08-30 05:25Z 58° 54' N, 12° 22' W Click for more
109147 CTD/STD cast 1978-08-30 05:30Z 58° 54' N, 12° 22' W Click for more
109159 CTD/STD cast 1978-08-30 05:35Z 58° 54' N, 12° 22' W Click for more
109160 CTD/STD cast 1978-08-30 05:40Z 58° 54' N, 12° 22' W Click for more
109172 CTD/STD cast 1978-08-30 05:45Z 58° 54' N, 12° 22' W Click for more
109184 CTD/STD cast 1978-08-30 05:50Z 58° 54' N, 12° 22' W Click for more
109196 CTD/STD cast 1978-08-30 05:55Z 58° 54' N, 12° 22' W Click for more
109203 CTD/STD cast 1978-08-30 06:00Z 58° 54' N, 12° 22' W Click for more
109215 CTD/STD cast 1978-08-30 09:50Z 58° 54' N, 12° 21' W Click for more
109227 CTD/STD cast 1978-08-30 10:00Z 58° 54' N, 12° 21' W Click for more
109239 CTD/STD cast 1978-08-30 10:05Z 58° 54' N, 12° 21' W Click for more
109240 CTD/STD cast 1978-08-30 10:10Z 58° 54' N, 12° 21' W Click for more
109252 CTD/STD cast 1978-08-30 10:15Z 58° 54' N, 12° 21' W Click for more
109264 CTD/STD cast 1978-08-30 10:20Z 58° 54' N, 12° 21' W Click for more
109276 CTD/STD cast 1978-08-30 10:25Z 58° 54' N, 12° 21' W Click for more
109288 CTD/STD cast 1978-08-30 10:30Z 58° 54' N, 12° 21' W Click for more
109307 CTD/STD cast 1978-08-30 10:35Z 58° 54' N, 12° 21' W Click for more
109319 CTD/STD cast 1978-08-30 10:40Z 58° 54' N, 12° 21' W Click for more
109320 CTD/STD cast 1978-08-30 10:45Z 58° 54' N, 12° 21' W Click for more
109332 CTD/STD cast 1978-08-30 10:50Z 58° 54' N, 12° 21' W Click for more
109344 CTD/STD cast 1978-08-30 10:55Z 58° 54' N, 12° 21' W Click for more
109356 CTD/STD cast 1978-08-30 11:00Z 58° 54' N, 12° 21' W Click for more
109368 CTD/STD cast 1978-08-30 11:05Z 58° 54' N, 12° 21' W Click for more
109381 CTD/STD cast 1978-08-30 11:10Z 58° 54' N, 12° 21' W Click for more
109393 CTD/STD cast 1978-08-30 11:15Z 58° 54' N, 12° 21' W Click for more
109400 CTD/STD cast 1978-08-30 11:20Z 58° 54' N, 12° 21' W Click for more
109412 CTD/STD cast 1978-08-30 11:35Z 58° 54' N, 12° 21' W Click for more
109424 CTD/STD cast 1978-08-30 11:40Z 58° 54' N, 12° 21' W Click for more
109436 CTD/STD cast 1978-08-30 11:45Z 58° 54' N, 12° 21' W Click for more
109448 CTD/STD cast 1978-08-30 11:50Z 58° 54' N, 12° 21' W Click for more
109461 CTD/STD cast 1978-08-30 11:55Z 58° 54' N, 12° 21' W Click for more
109473 CTD/STD cast 1978-08-30 12:00Z 58° 54' N, 12° 21' W Click for more
109485 CTD/STD cast 1978-08-30 12:05Z 58° 54' N, 12° 21' W Click for more
109497 CTD/STD cast 1978-08-30 12:10Z 58° 54' N, 12° 21' W Click for more
109504 CTD/STD cast 1978-08-30 12:15Z 58° 54' N, 12° 21' W Click for more
109516 CTD/STD cast 1978-08-30 12:20Z 58° 54' N, 12° 21' W Click for more
109528 CTD/STD cast 1978-08-30 12:40Z 58° 54' N, 12° 21' W Click for more
109541 CTD/STD cast 1978-08-30 12:50Z 58° 54' N, 12° 21' W Click for more
109553 CTD/STD cast 1978-08-30 12:55Z 58° 54' N, 12° 21' W Click for more
109565 CTD/STD cast 1978-08-30 13:00Z 58° 54' N, 12° 21' W Click for more
109577 CTD/STD cast 1978-08-30 13:05Z 58° 54' N, 12° 21' W Click for more
109589 CTD/STD cast 1978-08-30 13:10Z 58° 54' N, 12° 21' W Click for more
109590 CTD/STD cast 1978-08-30 13:15Z 58° 54' N, 12° 21' W Click for more
109608 CTD/STD cast 1978-08-30 13:25Z 58° 54' N, 12° 21' W Click for more
109621 CTD/STD cast 1978-08-30 13:30Z 58° 54' N, 12° 21' W Click for more
109633 CTD/STD cast 1978-08-30 13:35Z 58° 54' N, 12° 21' W Click for more
109645 CTD/STD cast 1978-08-30 13:40Z 58° 54' N, 12° 21' W Click for more
109657 CTD/STD cast 1978-08-30 13:45Z 58° 54' N, 12° 21' W Click for more
109669 CTD/STD cast 1978-08-30 13:50Z 58° 54' N, 12° 21' W Click for more
109670 CTD/STD cast 1978-08-30 13:55Z 58° 54' N, 12° 21' W Click for more
109682 CTD/STD cast 1978-08-30 14:00Z 58° 54' N, 12° 21' W Click for more
109694 CTD/STD cast 1978-08-30 14:05Z 58° 54' N, 12° 21' W Click for more
109701 CTD/STD cast 1978-08-30 14:10Z 58° 54' N, 12° 21' W Click for more
109713 CTD/STD cast 1978-08-30 14:15Z 58° 54' N, 12° 21' W Click for more
109725 CTD/STD cast 1978-08-30 14:20Z 58° 54' N, 12° 21' W Click for more
109737 CTD/STD cast 1978-08-30 14:25Z 58° 54' N, 12° 21' W Click for more
109749 CTD/STD cast 1978-08-31 10:00Z 58° 51' N, 12° 11' W Click for more
109750 CTD/STD cast 1978-08-31 10:05Z 58° 51' N, 12° 11' W Click for more
109762 CTD/STD cast 1978-08-31 10:10Z 58° 51' N, 12° 11' W Click for more
109774 CTD/STD cast 1978-08-31 10:15Z 58° 51' N, 12° 11' W Click for more
109786 CTD/STD cast 1978-08-31 10:20Z 58° 51' N, 12° 11' W Click for more
109798 CTD/STD cast 1978-08-31 10:25Z 58° 51' N, 12° 11' W Click for more
109805 CTD/STD cast 1978-08-31 10:30Z 58° 51' N, 12° 11' W Click for more
109817 CTD/STD cast 1978-08-31 10:35Z 58° 51' N, 12° 11' W Click for more
109829 CTD/STD cast 1978-08-31 10:40Z 58° 51' N, 12° 11' W Click for more
109830 CTD/STD cast 1978-08-31 10:45Z 58° 51' N, 12° 11' W Click for more
109842 CTD/STD cast 1978-08-31 10:50Z 58° 51' N, 12° 11' W Click for more
109854 CTD/STD cast 1978-08-31 10:55Z 58° 51' N, 12° 11' W Click for more
109866 CTD/STD cast 1978-08-31 11:00Z 58° 51' N, 12° 11' W Click for more
109878 CTD/STD cast 1978-08-31 11:05Z 58° 51' N, 12° 11' W Click for more
109891 CTD/STD cast 1978-08-31 11:10Z 58° 51' N, 12° 11' W Click for more
109909 CTD/STD cast 1978-08-31 11:15Z 58° 51' N, 12° 11' W Click for more
109910 CTD/STD cast 1978-08-31 11:20Z 58° 51' N, 12° 11' W Click for more
109922 CTD/STD cast 1978-08-31 11:25Z 58° 51' N, 12° 11' W Click for more
109934 CTD/STD cast 1978-08-31 11:30Z 58° 51' N, 12° 11' W Click for more
109946 CTD/STD cast 1978-08-31 11:35Z 58° 51' N, 12° 11' W Click for more
109958 CTD/STD cast 1978-08-31 11:40Z 58° 51' N, 12° 11' W Click for more
109971 CTD/STD cast 1978-08-31 11:45Z 58° 51' N, 12° 11' W Click for more
109983 CTD/STD cast 1978-08-31 11:50Z 58° 51' N, 12° 11' W Click for more
109995 CTD/STD cast 1978-08-31 11:55Z 58° 51' N, 12° 11' W Click for more
110007 CTD/STD cast 1978-08-31 12:00Z 58° 51' N, 12° 11' W Click for more
110019 CTD/STD cast 1978-08-31 12:05Z 58° 51' N, 12° 11' W Click for more
110020 CTD/STD cast 1978-08-31 12:10Z 58° 51' N, 12° 11' W Click for more
110032 CTD/STD cast 1978-08-31 12:15Z 58° 51' N, 12° 11' W Click for more
110044 CTD/STD cast 1978-08-31 12:20Z 58° 51' N, 12° 11' W Click for more
110056 CTD/STD cast 1978-08-31 12:25Z 58° 51' N, 12° 11' W Click for more
110068 CTD/STD cast 1978-08-31 12:30Z 58° 51' N, 12° 11' W Click for more
110081 CTD/STD cast 1978-08-31 12:35Z 58° 51' N, 12° 11' W Click for more
110093 CTD/STD cast 1978-08-31 12:40Z 58° 51' N, 12° 11' W Click for more
110100 CTD/STD cast 1978-08-31 12:45Z 58° 51' N, 12° 11' W Click for more
110112 CTD/STD cast 1978-08-31 12:50Z 58° 51' N, 12° 11' W Click for more
110124 CTD/STD cast 1978-08-31 12:55Z 58° 51' N, 12° 11' W Click for more
110136 CTD/STD cast 1978-08-31 13:00Z 58° 51' N, 12° 11' W Click for more
110148 CTD/STD cast 1978-08-31 13:05Z 58° 51' N, 12° 11' W Click for more
110161 CTD/STD cast 1978-08-31 13:10Z 58° 51' N, 12° 11' W Click for more
110173 CTD/STD cast 1978-08-31 13:15Z 58° 51' N, 12° 11' W Click for more
110185 CTD/STD cast 1978-08-31 13:35Z 58° 51' N, 12° 11' W Click for more
110197 CTD/STD cast 1978-08-31 13:40Z 58° 51' N, 12° 11' W Click for more
110204 CTD/STD cast 1978-08-31 13:45Z 58° 51' N, 12° 11' W Click for more
110216 CTD/STD cast 1978-08-31 13:50Z 58° 51' N, 12° 11' W Click for more
110228 CTD/STD cast 1978-08-31 13:55Z 58° 51' N, 12° 11' W Click for more
110241 CTD/STD cast 1978-08-31 14:00Z 58° 51' N, 12° 11' W Click for more
110253 CTD/STD cast 1978-08-31 14:05Z 58° 51' N, 12° 11' W Click for more
110265 CTD/STD cast 1978-08-31 14:10Z 58° 51' N, 12° 11' W Click for more
110277 CTD/STD cast 1978-08-31 14:15Z 58° 51' N, 12° 11' W Click for more
110289 CTD/STD cast 1978-08-31 14:20Z 58° 51' N, 12° 11' W Click for more
110290 CTD/STD cast 1978-08-31 14:25Z 58° 51' N, 12° 11' W Click for more
110308 CTD/STD cast 1978-08-31 14:30Z 58° 51' N, 12° 11' W Click for more
110321 CTD/STD cast 1978-08-31 14:35Z 58° 51' N, 12° 11' W Click for more
110333 CTD/STD cast 1978-08-31 14:40Z 58° 51' N, 12° 11' W Click for more
110345 CTD/STD cast 1978-08-31 14:50Z 58° 51' N, 12° 11' W Click for more
110357 CTD/STD cast 1978-08-31 14:55Z 58° 51' N, 12° 11' W Click for more
110369 CTD/STD cast 1978-08-31 18:25Z 58° 49' N, 12° 6' W Click for more
110370 CTD/STD cast 1978-08-31 18:30Z 58° 49' N, 12° 6' W Click for more
110382 CTD/STD cast 1978-08-31 18:35Z 58° 49' N, 12° 6' W Click for more
110394 CTD/STD cast 1978-08-31 18:40Z 58° 49' N, 12° 6' W Click for more
110401 CTD/STD cast 1978-08-31 19:00Z 58° 49' N, 12° 6' W Click for more
110413 CTD/STD cast 1978-08-31 19:05Z 58° 49' N, 12° 6' W Click for more
110425 CTD/STD cast 1978-08-31 19:10Z 58° 49' N, 12° 6' W Click for more
110437 CTD/STD cast 1978-08-31 19:15Z 58° 49' N, 12° 6' W Click for more
110449 CTD/STD cast 1978-08-31 19:20Z 58° 49' N, 12° 6' W Click for more
110450 CTD/STD cast 1978-08-31 19:25Z 58° 49' N, 12° 6' W Click for more
110462 CTD/STD cast 1978-08-31 19:30Z 58° 49' N, 12° 6' W Click for more
110474 CTD/STD cast 1978-08-31 19:35Z 58° 49' N, 12° 6' W Click for more
110486 CTD/STD cast 1978-08-31 19:40Z 58° 49' N, 12° 6' W Click for more
110498 CTD/STD cast 1978-08-31 19:45Z 58° 49' N, 12° 6' W Click for more
110505 CTD/STD cast 1978-08-31 19:50Z 58° 49' N, 12° 6' W Click for more
110517 CTD/STD cast 1978-08-31 19:55Z 58° 49' N, 12° 6' W Click for more
110529 CTD/STD cast 1978-08-31 20:00Z 58° 49' N, 12° 6' W Click for more
110530 CTD/STD cast 1978-08-31 20:05Z 58° 49' N, 12° 6' W Click for more
110542 CTD/STD cast 1978-08-31 20:10Z 58° 49' N, 12° 6' W Click for more
110554 CTD/STD cast 1978-08-31 20:15Z 58° 49' N, 12° 6' W Click for more
110566 CTD/STD cast 1978-08-31 20:20Z 58° 49' N, 12° 6' W Click for more
110578 CTD/STD cast 1978-08-31 20:25Z 58° 49' N, 12° 6' W Click for more
110591 CTD/STD cast 1978-08-31 20:30Z 58° 49' N, 12° 6' W Click for more
110609 CTD/STD cast 1978-08-31 20:35Z 58° 49' N, 12° 6' W Click for more
110610 CTD/STD cast 1978-08-31 20:40Z 58° 49' N, 12° 6' W Click for more
110622 CTD/STD cast 1978-08-31 20:45Z 58° 49' N, 12° 6' W Click for more
110634 CTD/STD cast 1978-08-31 20:50Z 58° 49' N, 12° 6' W Click for more
110646 CTD/STD cast 1978-08-31 20:55Z 58° 49' N, 12° 6' W Click for more
110658 CTD/STD cast 1978-08-31 21:00Z 58° 49' N, 12° 6' W Click for more
110671 CTD/STD cast 1978-08-31 21:10Z 58° 49' N, 12° 6' W Click for more
110683 CTD/STD cast 1978-08-31 21:15Z 58° 49' N, 12° 6' W Click for more
110695 CTD/STD cast 1978-08-31 21:20Z 58° 49' N, 12° 6' W Click for more
110702 CTD/STD cast 1978-08-31 21:30Z 58° 49' N, 12° 6' W Click for more
110714 CTD/STD cast 1978-08-31 21:35Z 58° 49' N, 12° 6' W Click for more
110726 CTD/STD cast 1978-08-31 21:40Z 58° 49' N, 12° 6' W Click for more
110738 CTD/STD cast 1978-08-31 21:45Z 58° 49' N, 12° 6' W Click for more
110751 CTD/STD cast 1978-08-31 21:50Z 58° 49' N, 12° 6' W Click for more
110763 CTD/STD cast 1978-08-31 21:55Z 58° 49' N, 12° 6' W Click for more
110775 CTD/STD cast 1978-08-31 22:00Z 58° 49' N, 12° 6' W Click for more
110787 CTD/STD cast 1978-08-31 22:05Z 58° 49' N, 12° 6' W Click for more
110799 CTD/STD cast 1978-08-31 22:25Z 58° 49' N, 12° 6' W Click for more
110806 CTD/STD cast 1978-08-31 22:30Z 58° 49' N, 12° 6' W Click for more
110818 CTD/STD cast 1978-08-31 22:35Z 58° 49' N, 12° 6' W Click for more
110831 CTD/STD cast 1978-08-31 22:40Z 58° 49' N, 12° 6' W Click for more
110843 CTD/STD cast 1978-08-31 22:45Z 58° 49' N, 12° 6' W Click for more
110855 CTD/STD cast 1978-08-31 22:50Z 58° 49' N, 12° 6' W Click for more
110867 CTD/STD cast 1978-08-31 22:55Z 58° 49' N, 12° 6' W Click for more
110879 CTD/STD cast 1978-08-31 23:00Z 58° 49' N, 12° 6' W Click for more
110880 CTD/STD cast 1978-08-31 23:05Z 58° 49' N, 12° 6' W Click for more
110892 CTD/STD cast 1978-08-31 23:10Z 58° 49' N, 12° 6' W Click for more
110911 CTD/STD cast 1978-08-31 23:20Z 58° 49' N, 12° 6' W Click for more
110923 CTD/STD cast 1978-08-31 23:25Z 58° 49' N, 12° 6' W Click for more
110935 CTD/STD cast 1978-08-31 23:30Z 58° 49' N, 12° 6' W Click for more
110947 CTD/STD cast 1978-08-31 23:35Z 58° 49' N, 12° 6' W Click for more
110959 CTD/STD cast 1978-08-31 23:40Z 58° 49' N, 12° 6' W Click for more
110960 CTD/STD cast 1978-08-31 23:45Z 58° 49' N, 12° 6' W Click for more
110972 CTD/STD cast 1978-08-31 23:50Z 58° 49' N, 12° 6' W Click for more
110984 CTD/STD cast 1978-08-31 23:55Z 58° 49' N, 12° 6' W Click for more
110996 CTD/STD cast 1978-09-01 00:00Z 58° 49' N, 12° 6' W Click for more
111011 CTD/STD cast 1978-09-01 00:05Z 58° 49' N, 12° 6' W Click for more
111023 CTD/STD cast 1978-09-01 00:10Z 58° 49' N, 12° 6' W Click for more
111035 CTD/STD cast 1978-09-01 00:15Z 58° 49' N, 12° 6' W Click for more
111047 CTD/STD cast 1978-09-01 00:20Z 58° 49' N, 12° 6' W Click for more
111059 CTD/STD cast 1978-09-01 00:45Z 58° 49' N, 12° 6' W Click for more
111060 CTD/STD cast 1978-09-01 00:50Z 58° 49' N, 12° 6' W Click for more
111072 CTD/STD cast 1978-09-01 00:55Z 58° 49' N, 12° 6' W Click for more
111084 CTD/STD cast 1978-09-01 01:00Z 58° 49' N, 12° 6' W Click for more
111096 CTD/STD cast 1978-09-01 01:05Z 58° 49' N, 12° 6' W Click for more
111103 CTD/STD cast 1978-09-01 01:10Z 58° 49' N, 12° 6' W Click for more
111115 CTD/STD cast 1978-09-01 01:15Z 58° 49' N, 12° 6' W Click for more
111127 CTD/STD cast 1978-09-01 01:20Z 58° 49' N, 12° 6' W Click for more
111139 CTD/STD cast 1978-09-01 01:25Z 58° 49' N, 12° 6' W Click for more
111140 CTD/STD cast 1978-09-01 01:30Z 58° 49' N, 12° 6' W Click for more
111152 CTD/STD cast 1978-09-01 01:35Z 58° 49' N, 12° 6' W Click for more
111164 CTD/STD cast 1978-09-01 01:40Z 58° 49' N, 12° 6' W Click for more
111176 CTD/STD cast 1978-09-01 01:45Z 58° 49' N, 12° 6' W Click for more
111188 CTD/STD cast 1978-09-01 01:50Z 58° 49' N, 12° 6' W Click for more
111207 CTD/STD cast 1978-09-01 01:55Z 58° 49' N, 12° 6' W Click for more
111219 CTD/STD cast 1978-09-01 02:00Z 58° 49' N, 12° 6' W Click for more
111220 CTD/STD cast 1978-09-01 02:05Z 58° 49' N, 12° 6' W Click for more
111232 CTD/STD cast 1978-09-01 02:10Z 58° 49' N, 12° 6' W Click for more
111244 CTD/STD cast 1978-09-01 02:15Z 58° 49' N, 12° 6' W Click for more
111256 CTD/STD cast 1978-09-01 02:20Z 58° 49' N, 12° 6' W Click for more
111268 CTD/STD cast 1978-09-01 02:25Z 58° 49' N, 12° 6' W Click for more
111281 CTD/STD cast 1978-09-01 02:30Z 58° 49' N, 12° 6' W Click for more
111293 CTD/STD cast 1978-09-01 02:35Z 58° 49' N, 12° 6' W Click for more
111300 CTD/STD cast 1978-09-01 02:40Z 58° 49' N, 12° 6' W Click for more
111312 CTD/STD cast 1978-09-01 02:45Z 58° 49' N, 12° 6' W Click for more
111324 CTD/STD cast 1978-09-01 02:50Z 58° 49' N, 12° 6' W Click for more
111336 CTD/STD cast 1978-09-01 16:50Z 58° 47' N, 12° 4' W Click for more
111348 CTD/STD cast 1978-09-01 16:55Z 58° 47' N, 12° 4' W Click for more
111361 CTD/STD cast 1978-09-01 17:00Z 58° 47' N, 12° 4' W Click for more
111373 CTD/STD cast 1978-09-01 17:05Z 58° 47' N, 12° 4' W Click for more
111385 CTD/STD cast 1978-09-01 17:10Z 58° 47' N, 12° 4' W Click for more
111397 CTD/STD cast 1978-09-01 17:15Z 58° 47' N, 12° 4' W Click for more
111404 CTD/STD cast 1978-09-02 11:25Z 59° 25' N, 12° 27' W Click for more
111416 CTD/STD cast 1978-09-02 11:30Z 59° 25' N, 12° 27' W Click for more
111428 CTD/STD cast 1978-09-02 11:35Z 59° 25' N, 12° 27' W Click for more
111441 CTD/STD cast 1978-09-02 11:40Z 59° 25' N, 12° 27' W Click for more
111453 CTD/STD cast 1978-09-02 11:45Z 59° 25' N, 12° 27' W Click for more
111465 CTD/STD cast 1978-09-02 11:50Z 59° 25' N, 12° 27' W Click for more
111477 CTD/STD cast 1978-09-02 11:55Z 59° 25' N, 12° 27' W Click for more
111489 CTD/STD cast 1978-09-02 12:00Z 59° 25' N, 12° 27' W Click for more
111490 CTD/STD cast 1978-09-02 12:05Z 59° 25' N, 12° 27' W Click for more
111508 CTD/STD cast 1978-09-02 12:10Z 59° 25' N, 12° 27' W Click for more
111521 CTD/STD cast 1978-09-02 12:15Z 59° 25' N, 12° 27' W Click for more
111533 CTD/STD cast 1978-09-02 12:20Z 59° 25' N, 12° 27' W Click for more
111545 CTD/STD cast 1978-09-02 12:25Z 59° 25' N, 12° 27' W Click for more
111557 CTD/STD cast 1978-09-02 12:30Z 59° 25' N, 12° 27' W Click for more
111569 CTD/STD cast 1978-09-02 12:35Z 59° 25' N, 12° 27' W Click for more
111570 CTD/STD cast 1978-09-02 12:40Z 59° 25' N, 12° 27' W Click for more
111582 CTD/STD cast 1978-09-02 12:45Z 59° 25' N, 12° 27' W Click for more
111594 CTD/STD cast 1978-09-02 12:50Z 59° 25' N, 12° 27' W Click for more
111601 CTD/STD cast 1978-09-02 12:55Z 59° 25' N, 12° 27' W Click for more
111613 CTD/STD cast 1978-09-02 13:00Z 59° 25' N, 12° 27' W Click for more
111625 CTD/STD cast 1978-09-02 13:05Z 59° 25' N, 12° 27' W Click for more
111637 CTD/STD cast 1978-09-02 13:10Z 59° 25' N, 12° 27' W Click for more
111649 CTD/STD cast 1978-09-02 13:15Z 59° 25' N, 12° 27' W Click for more
111650 CTD/STD cast 1978-09-02 13:20Z 59° 25' N, 12° 27' W Click for more
111662 CTD/STD cast 1978-09-02 13:25Z 59° 25' N, 12° 27' W Click for more
111674 CTD/STD cast 1978-09-02 13:30Z 59° 25' N, 12° 27' W Click for more
111686 CTD/STD cast 1978-09-02 13:35Z 59° 25' N, 12° 27' W Click for more
111698 CTD/STD cast 1978-09-02 13:40Z 59° 25' N, 12° 27' W Click for more
111705 CTD/STD cast 1978-09-02 13:45Z 59° 25' N, 12° 27' W Click for more
111717 CTD/STD cast 1978-09-02 13:50Z 59° 25' N, 12° 27' W Click for more
111729 CTD/STD cast 1978-09-02 13:55Z 59° 25' N, 12° 27' W Click for more
111730 CTD/STD cast 1978-09-02 14:00Z 59° 25' N, 12° 27' W Click for more
111742 CTD/STD cast 1978-09-02 14:05Z 59° 25' N, 12° 27' W Click for more
111754 CTD/STD cast 1978-09-02 14:10Z 59° 25' N, 12° 27' W Click for more
111766 CTD/STD cast 1978-09-02 14:15Z 59° 25' N, 12° 27' W Click for more
111778 CTD/STD cast 1978-09-02 14:25Z 59° 25' N, 12° 27' W Click for more
111791 CTD/STD cast 1978-09-02 14:30Z 59° 25' N, 12° 27' W Click for more
111809 CTD/STD cast 1978-09-02 14:35Z 59° 25' N, 12° 27' W Click for more
111810 CTD/STD cast 1978-09-02 14:40Z 59° 25' N, 12° 27' W Click for more
111822 CTD/STD cast 1978-09-02 14:45Z 59° 25' N, 12° 27' W Click for more
111834 CTD/STD cast 1978-09-02 14:50Z 59° 25' N, 12° 27' W Click for more
111846 CTD/STD cast 1978-09-02 14:55Z 59° 25' N, 12° 27' W Click for more
111858 CTD/STD cast 1978-09-02 15:00Z 59° 25' N, 12° 27' W Click for more
111871 CTD/STD cast 1978-09-02 18:45Z 58° 45' N, 12° 2' W Click for more
111883 CTD/STD cast 1978-09-02 18:50Z 58° 45' N, 12° 2' W Click for more
111895 CTD/STD cast 1978-09-02 18:55Z 58° 45' N, 12° 2' W Click for more
111902 CTD/STD cast 1978-09-02 19:00Z 58° 45' N, 12° 2' W Click for more
111914 CTD/STD cast 1978-09-02 19:05Z 58° 45' N, 12° 2' W Click for more
111926 CTD/STD cast 1978-09-02 19:10Z 58° 45' N, 12° 2' W Click for more
111938 CTD/STD cast 1978-09-02 19:15Z 58° 45' N, 12° 2' W Click for more
111951 CTD/STD cast 1978-09-02 19:20Z 58° 45' N, 12° 2' W Click for more
111963 CTD/STD cast 1978-09-02 19:25Z 58° 45' N, 12° 2' W Click for more
111975 CTD/STD cast 1978-09-02 19:30Z 58° 45' N, 12° 2' W Click for more
111987 CTD/STD cast 1978-09-02 19:35Z 58° 45' N, 12° 2' W Click for more
111999 CTD/STD cast 1978-09-02 19:40Z 58° 45' N, 12° 2' W Click for more
112002 CTD/STD cast 1978-09-02 19:45Z 58° 45' N, 12° 2' W Click for more
112014 CTD/STD cast 1978-09-02 19:50Z 58° 45' N, 12° 2' W Click for more
112026 CTD/STD cast 1978-09-02 19:55Z 58° 45' N, 12° 2' W Click for more
112038 CTD/STD cast 1978-09-02 20:00Z 58° 45' N, 12° 2' W Click for more
112051 CTD/STD cast 1978-09-02 20:05Z 58° 45' N, 12° 2' W Click for more
112063 CTD/STD cast 1978-09-02 20:10Z 58° 45' N, 12° 2' W Click for more
112075 CTD/STD cast 1978-09-02 20:15Z 58° 45' N, 12° 2' W Click for more
112087 CTD/STD cast 1978-09-02 20:20Z 58° 45' N, 12° 2' W Click for more
112099 CTD/STD cast 1978-09-02 20:25Z 58° 45' N, 12° 2' W Click for more
112106 CTD/STD cast 1978-09-02 20:30Z 58° 45' N, 12° 2' W Click for more
112118 CTD/STD cast 1978-09-02 20:40Z 58° 45' N, 12° 2' W Click for more
112131 CTD/STD cast 1978-09-02 20:45Z 58° 45' N, 12° 2' W Click for more
112143 CTD/STD cast 1978-09-02 20:50Z 58° 45' N, 12° 2' W Click for more
112155 CTD/STD cast 1978-09-02 21:00Z 58° 45' N, 12° 2' W Click for more
112167 CTD/STD cast 1978-09-02 21:05Z 58° 45' N, 12° 2' W Click for more
112179 CTD/STD cast 1978-09-02 21:10Z 58° 45' N, 12° 2' W Click for more
112180 CTD/STD cast 1978-09-02 21:15Z 58° 45' N, 12° 2' W Click for more
112192 CTD/STD cast 1978-09-02 21:20Z 58° 45' N, 12° 2' W Click for more
112211 CTD/STD cast 1978-09-02 21:25Z 58° 45' N, 12° 2' W Click for more
112223 CTD/STD cast 1978-09-02 21:30Z 58° 45' N, 12° 2' W Click for more
112235 CTD/STD cast 1978-09-02 21:35Z 58° 45' N, 12° 2' W Click for more
112247 CTD/STD cast 1978-09-02 21:45Z 58° 45' N, 12° 2' W Click for more
112259 CTD/STD cast 1978-09-02 21:50Z 58° 45' N, 12° 2' W Click for more
112260 CTD/STD cast 1978-09-02 21:55Z 58° 45' N, 12° 2' W Click for more
112272 CTD/STD cast 1978-09-02 22:00Z 58° 45' N, 12° 2' W Click for more
112284 CTD/STD cast 1978-09-02 22:05Z 58° 45' N, 12° 2' W Click for more
112296 CTD/STD cast 1978-09-02 22:10Z 58° 45' N, 12° 2' W Click for more
112303 CTD/STD cast 1978-09-02 22:15Z 58° 45' N, 12° 2' W Click for more
112315 CTD/STD cast 1978-09-02 22:20Z 58° 45' N, 12° 2' W Click for more
112327 CTD/STD cast 1978-09-02 22:25Z 58° 45' N, 12° 2' W Click for more
112339 CTD/STD cast 1978-09-02 22:30Z 58° 45' N, 12° 2' W Click for more
112340 CTD/STD cast 1978-09-02 22:35Z 58° 45' N, 12° 2' W Click for more
112352 CTD/STD cast 1978-09-02 22:40Z 58° 45' N, 12° 2' W Click for more
112364 CTD/STD cast 1978-09-02 22:55Z 58° 45' N, 12° 2' W Click for more
112376 CTD/STD cast 1978-09-02 23:00Z 58° 45' N, 12° 2' W Click for more
112388 CTD/STD cast 1978-09-02 23:05Z 58° 45' N, 12° 2' W Click for more
112407 CTD/STD cast 1978-09-02 23:10Z 58° 45' N, 12° 2' W Click for more
112419 CTD/STD cast 1978-09-02 23:15Z 58° 45' N, 12° 2' W Click for more
112420 CTD/STD cast 1978-09-02 23:20Z 58° 45' N, 12° 2' W Click for more
112432 CTD/STD cast 1978-09-02 23:25Z 58° 45' N, 12° 2' W Click for more
112444 CTD/STD cast 1978-09-02 23:30Z 58° 45' N, 12° 2' W Click for more
112456 CTD/STD cast 1978-09-02 23:35Z 58° 45' N, 12° 2' W Click for more
112468 CTD/STD cast 1978-09-02 23:40Z 58° 45' N, 12° 2' W Click for more
112481 CTD/STD cast 1978-09-02 23:55Z 58° 45' N, 12° 2' W Click for more
112493 CTD/STD cast 1978-09-02 00:00Z 58° 45' N, 12° 2' W Click for more
112500 CTD/STD cast 1978-09-02 00:25Z 58° 45' N, 12° 2' W Click for more
112512 CTD/STD cast 1978-09-02 00:30Z 58° 45' N, 12° 2' W Click for more
112524 CTD/STD cast 1978-09-02 00:35Z 58° 45' N, 12° 2' W Click for more
112536 CTD/STD cast 1978-09-02 00:40Z 58° 45' N, 12° 2' W Click for more
112548 CTD/STD cast 1978-09-02 00:45Z 58° 45' N, 12° 2' W Click for more
112561 CTD/STD cast 1978-09-02 00:50Z 58° 45' N, 12° 2' W Click for more
112573 CTD/STD cast 1978-09-02 00:55Z 58° 45' N, 12° 2' W Click for more
112585 CTD/STD cast 1978-09-02 01:00Z 58° 45' N, 12° 2' W Click for more
112597 CTD/STD cast 1978-09-02 01:05Z 58° 45' N, 12° 2' W Click for more
112604 CTD/STD cast 1978-09-02 01:10Z 58° 45' N, 12° 2' W Click for more
112616 CTD/STD cast 1978-09-02 01:15Z 58° 45' N, 12° 2' W Click for more
112628 CTD/STD cast 1978-09-02 01:20Z 58° 45' N, 12° 2' W Click for more
112641 CTD/STD cast 1978-09-02 01:25Z 58° 45' N, 12° 2' W Click for more
112653 CTD/STD cast 1978-09-02 01:30Z 58° 45' N, 12° 2' W Click for more
112665 CTD/STD cast 1978-09-02 01:40Z 58° 45' N, 12° 2' W Click for more
112677 CTD/STD cast 1978-09-02 01:45Z 58° 45' N, 12° 2' W Click for more
112689 CTD/STD cast 1978-09-02 01:50Z 58° 45' N, 12° 2' W Click for more
112690 CTD/STD cast 1978-09-02 01:55Z 58° 45' N, 12° 2' W Click for more
112708 CTD/STD cast 1978-09-02 02:00Z 58° 45' N, 12° 2' W Click for more
112721 CTD/STD cast 1978-09-02 02:05Z 58° 45' N, 12° 2' W Click for more
112733 CTD/STD cast 1978-09-02 02:10Z 58° 45' N, 12° 2' W Click for more
112745 CTD/STD cast 1978-09-02 02:15Z 58° 45' N, 12° 2' W Click for more
112757 CTD/STD cast 1978-09-02 02:20Z 58° 45' N, 12° 2' W Click for more
112769 CTD/STD cast 1978-09-02 02:25Z 58° 45' N, 12° 2' W Click for more
112770 CTD/STD cast 1978-09-02 02:30Z 58° 45' N, 12° 2' W Click for more
112782 CTD/STD cast 1978-09-02 02:35Z 58° 45' N, 12° 2' W Click for more
112794 CTD/STD cast 1978-09-02 02:40Z 58° 45' N, 12° 2' W Click for more
112801 CTD/STD cast 1978-09-02 02:45Z 58° 45' N, 12° 2' W Click for more
112813 CTD/STD cast 1978-09-02 02:50Z 58° 45' N, 12° 2' W Click for more

Project Database

No data currently held for this cruise in the BODC Project Database

References

Track Charts

No track charts currently available

Reports

No reports currently available